[[{"header":{"parameterUnit":"m.s-1","parameterCategory":1,"la1":30.2991,"la2":30.254,"lo1":-89.0895,"lo2":-89.0444,"dy":0.0017,"dx":0.0017,"nx":28,"ny":28,"refTime":"2025-02-12T03:00:00:Z","depth":0,"parameterNumber":2,"parameterNumberName":"U-component_of_WINDS"},"data":[0,0,0,0,0,0,0,0,0,0,0,0,0,0,0,0,0,0,0,0,0,0,0,0,0,0,0,0,0,0,0,0,0,0,0,0,0,0,0,0,0,0,0,0,0,0,0,0,0,0,0,0,0,0,0,0,0,0,4.6538,4.6539,0,4.6588,4.6588,4.6589,4.6549,4.6548,4.6546,4.6544,4.6593,4.6596,4.6599,0,0,0,0,0,0,0,0,0,0,0,0,0,4.6407,4.641,4.6538,4.6539,4.6539,4.6588,4.6588,4.6589,4.655,4.6548,4.6546,4.6544,4.6592,4.6596,4.6599,0,0,0,0,0,0,0,0,0,0,0,0,0,4.6461,4.6411,4.6538,4.6525,4.6525,4.6588,4.6588,4.6589,4.655,4.6548,4.6545,4.6543,4.6591,4.6596,4.66,4.6677,0,0,4.6613,4.6615,0,0,0,0,0,0,0,0,4.6458,4.6466,4.6527,4.6526,4.6526,4.656,4.656,4.6619,4.6551,4.654,4.6544,4.6541,4.6584,4.6589,4.6604,4.6679,4.6681,4.6613,4.6616,4.6618,4.6619,0,0,0,0,0,0,0,4.6454,4.6464,4.6558,4.6528,4.6527,4.6517,4.6522,4.6571,4.6576,4.6541,4.6538,4.6545,4.6583,4.66,4.6605,4.6682,4.6613,4.6617,4.662,4.6621,4.6824,4.6827,0,0,0,0,0,0,4.6452,4.6461,4.6556,4.6559,4.6485,4.6521,4.6527,4.6551,4.6575,4.6576,4.6547,4.6543,4.6594,4.66,4.6606,4.6698,4.6618,4.6622,4.6624,4.6822,4.6825,4.6828,0,0,0,0,0,0,4.645,4.6461,4.6554,4.6509,4.652,4.6526,4.6554,4.6554,4.657,4.658,4.658,4.6563,4.6592,4.66,4.666,4.67,4.6624,4.6628,4.6818,4.6823,4.6826,4.6884,0,0,0,0,0,0,4.6446,4.646,4.649,4.651,4.6523,4.6607,4.6557,4.6557,4.6578,4.6573,4.6595,4.6596,4.659,4.6654,4.6664,4.6704,4.6631,4.6815,4.682,4.6825,4.6878,4.6889,4.6899,0,0,0,0,0,4.6441,4.6503,4.6492,4.6503,4.656,4.661,4.6617,4.661,4.6581,4.6611,4.6617,4.6595,4.6694,4.666,4.6672,4.6713,4.6812,4.6819,4.6825,4.6873,4.6887,4.6898,0,0,0,0,0,0,4.6486,4.6506,4.6493,4.6563,4.6585,4.6603,4.664,4.6624,4.6655,4.6649,4.6638,4.6644,4.6707,4.6716,4.6678,4.679,4.6748,4.6757,4.6781,4.6794,4.6804,4.68,4.6635,0,0,0,0,0,4.6504,4.6544,4.6558,4.6619,4.6631,4.6634,4.6655,4.6648,4.667,4.6679,4.669,4.6712,4.6748,4.6772,4.6805,4.688,4.6884,4.6914,4.6924,4.6933,4.694,4.6981,4.6995,4.6849,4.6849,4.6849,0,0,4.6541,4.6557,4.6582,4.6628,4.6645,4.6685,4.6642,4.6686,4.6716,4.6686,4.6743,4.6752,4.6776,4.6844,4.6874,4.6853,4.6982,4.6941,4.6947,4.695,4.6989,4.7003,4.7015,4.6853,4.6852,4.6852,0,0,4.6631,4.6647,4.6699,4.6717,4.6743,4.6745,4.6758,4.6778,4.6783,4.6841,4.682,4.6855,4.6917,4.6935,4.6953,4.7051,4.7032,4.7062,4.7115,4.7155,4.7167,4.7177,4.7212,4.7225,4.707,4.707,4.707,0,4.6674,4.6735,4.6728,4.6775,4.6796,4.6772,4.6825,4.6842,4.6877,4.6892,4.6869,4.6948,4.6962,4.7034,4.7058,4.7073,4.7087,4.7059,4.7166,4.7176,4.7185,4.7219,4.7232,4.7074,4.7073,4.7073,4.7073,0,4.6787,4.683,4.6869,4.6905,4.6931,4.698,4.6981,4.7008,4.6999,4.7004,4.7063,4.708,4.7117,4.7133,4.7125,4.7205,4.7191,4.7167,4.7125,4.7203,4.7234,4.7247,4.7079,4.7077,4.7076,4.7075,0,0,4.6903,4.6937,4.6952,4.6968,4.6996,4.7029,4.7078,4.7115,4.7138,4.7164,4.7204,4.7259,4.7237,4.7257,4.725,4.7285,4.7363,4.7257,4.7257,4.7276,4.7452,4.747,4.7484,4.7351,4.7353,4.7355,4.745,0,4.6994,4.708,4.7077,4.7157,4.7197,4.7175,4.7218,4.724,4.7246,4.728,4.7286,4.7325,4.7293,4.7305,4.7339,4.7346,4.7398,4.7339,4.7388,4.739,4.7382,4.7501,4.7519,4.7608,4.7462,4.7464,4.7466,0,4.7111,4.7142,4.7227,4.725,4.7267,4.7305,4.734,4.7373,4.7397,4.7399,4.7422,4.7411,4.746,4.7418,4.7486,4.7446,4.7466,4.7473,4.7476,4.748,4.7432,4.7507,4.7636,4.7649,4.7485,4.7483,4.7482,0,4.7188,4.7251,4.731,4.7325,4.7354,4.7381,4.7394,4.7416,4.7439,4.7469,4.7484,4.7519,4.7539,4.7566,4.7564,4.7533,4.7634,4.7591,4.7636,4.7636,4.7657,4.7656,4.779,4.7671,4.7671,4.7671,4.767,0,4.7289,4.7342,4.7345,4.7382,4.744,4.7436,4.7494,4.7504,4.7524,4.7562,4.7545,4.7581,4.7576,4.7612,4.7611,4.7668,4.7677,4.7679,4.7678,4.768,4.768,4.7692,4.7686,4.7674,4.7673,4.7673,4.7672,0,4.7384,4.7389,4.7452,4.7475,4.7482,4.7524,4.7543,4.7577,4.7582,4.763,4.7641,4.7649,4.7691,4.7692,4.7739,4.7739,4.7808,4.78,4.78,4.7798,4.7843,4.7839,4.799,4.801,4.7878,4.788,4.7881,0,4.7448,4.7488,4.7516,4.7541,4.7556,4.7596,4.762,4.7617,4.7643,4.7675,4.7705,4.7745,4.7777,4.7845,4.7854,4.789,4.7883,4.7934,4.7888,4.7889,4.7883,4.7881,4.7885,4.7942,4.7944,4.7945,4.7946,0,4.7561,4.7562,4.7598,4.7635,4.7665,4.7694,4.772,4.7741,4.7742,4.7771,4.7814,4.7839,4.7888,4.7928,4.7964,4.7977,4.7961,4.796,4.7973,4.7975,4.7973,4.7974,4.7823,4.7956,4.7955,4.7955,4.7954,4.7954,4.7642,4.7678,4.7703,4.7744,4.7764,4.779,4.7824,4.7834,4.787,4.7911,4.7907,4.7955,4.7979,4.8025,4.8041,4.8078,4.806,4.8078,4.8083,4.8087,4.8092,4.7968,4.8085,4.8084,4.8084,4.8084,4.8083,0,4.7755,4.7771,4.7808,4.7847,4.7879,4.7864,4.7893,4.7921,4.7963,4.7987,4.802,4.8069,4.8109,4.8122,4.816,4.8187,4.8181,4.8197,4.8194,4.8198,4.8105,4.8091,4.8201,4.8201,4.8201,4.8201,4.8201,4.8201,4.7817,4.7876,4.788,4.7949,4.7964,4.8012,4.803,4.8054,4.8073,4.813,4.8163,4.8172,4.8192,4.8231,4.8266,4.8269,4.8284,4.8303,4.8303,4.8216,4.8204,4.8193,4.8179,4.8306,4.8306,4.8392,4.8393,4.8393]},{"header":{"parameterUnit":"m.s-1","parameterCategory":1,"la1":30.2991,"la2":30.254,"lo1":-89.0895,"lo2":-89.0444,"dy":0.0017,"dx":0.0017,"nx":28,"ny":28,"refTime":"2025-02-12T03:00:00:Z","depth":0,"parameterNumber":3,"parameterNumberName":"V-component_of_WINDS"},"data":[0,0,0,0,0,0,0,0,0,0,0,0,0,0,0,0,0,0,0,0,0,0,0,0,0,0,0,0,0,0,0,0,0,0,0,0,0,0,0,0,0,0,0,0,0,0,0,0,0,0,0,0,0,0,0,0,0,0,1.9784,1.979,0,2.0346,2.0352,2.0359,2.0488,2.0485,2.0481,2.0477,2.1057,2.1075,2.1094,0,0,0,0,0,0,0,0,0,0,0,0,0,1.8819,1.8836,1.9783,1.979,1.9797,2.0345,2.0353,2.036,2.0489,2.0484,2.048,2.0475,2.1051,2.1073,2.1096,0,0,0,0,0,0,0,0,0,0,0,0,0,1.9295,1.8842,1.9782,1.9928,1.9946,2.0343,2.0353,2.0363,2.049,2.0484,2.0478,2.0473,2.1043,2.1071,2.1099,2.1393,0,0,2.1187,2.1199,0,0,0,0,0,0,0,0,1.9268,1.9331,1.9899,1.9918,1.994,2.0341,2.0226,2.0708,2.0492,2.0284,2.0477,2.047,2.0824,2.087,2.0989,2.142,2.1445,2.1189,2.1207,2.1219,2.1227,0,0,0,0,0,0,0,1.9235,1.9307,2.0006,1.9907,1.9932,1.9964,2.0025,2.0318,2.058,2.0301,2.0312,2.0377,2.0834,2.0961,2.1003,2.1454,2.1188,2.1214,2.1232,2.1243,2.2148,2.2155,0,0,0,0,0,0,1.9176,1.9279,1.9988,2.0023,1.9582,1.9986,2.0055,2.0218,2.0577,2.0626,2.0381,2.0381,2.0915,2.097,2.1024,2.1389,2.1219,2.1245,2.1262,2.2142,2.215,2.2157,0,0,0,0,0,0,1.9155,1.9239,1.9966,1.9654,1.9749,2.0009,2.0192,2.0232,2.036,2.0637,2.0685,2.0463,2.0912,2.0984,2.1299,2.1411,2.1258,2.1284,2.2133,2.2144,2.2154,2.2122,0,0,0,0,0,0,1.9127,1.923,1.9346,1.9656,1.9765,2.0232,2.0199,2.0248,2.0408,2.0413,2.0726,2.0773,2.0913,2.1255,2.1327,2.1448,2.1307,2.2125,2.2138,2.215,2.2115,2.213,2.2144,0,0,0,0,0,1.9092,1.9317,1.9351,1.9436,1.9915,2.0238,2.0301,2.0456,2.0416,2.0534,2.0711,2.0763,2.1386,2.1286,2.1369,2.1499,2.2118,2.2134,2.2149,2.2108,2.2127,2.2143,0,0,0,0,0,0,1.9017,1.936,1.9402,1.9734,1.9955,2.0259,2.0413,2.0472,2.0712,2.0706,2.089,2.096,2.1262,2.1412,2.1295,2.1799,2.1751,2.1783,2.1691,2.1712,2.1726,2.1685,2.1331,0,0,0,0,0,1.9037,1.9271,1.9559,1.9823,1.9932,2.0152,2.0299,2.0399,2.0636,2.0732,2.0932,2.1161,2.1408,2.1568,2.1811,2.2135,2.2204,2.2265,2.2279,2.229,2.2317,2.2495,2.2525,2.2208,2.2208,2.2208,0,0,1.9086,1.9302,1.9439,1.9813,1.9997,2.0233,2.0231,2.0483,2.066,2.0771,2.108,2.1233,2.1501,2.182,2.1971,2.1955,2.2418,2.2309,2.2316,2.2338,2.2514,2.2544,2.257,2.2219,2.2217,2.2215,0,0,1.9294,1.9481,1.972,1.9902,2.0178,2.0322,2.0378,2.0673,2.0778,2.109,2.1176,2.1389,2.1812,2.1997,2.2147,2.2415,2.2471,2.2489,2.2567,2.2739,2.2763,2.2787,2.2881,2.2913,2.2514,2.2514,2.2514,0,1.9319,1.968,1.9836,2.0083,2.0243,2.0349,2.0591,2.0761,2.1102,2.1211,2.1186,2.1714,2.1902,2.2264,2.2328,2.2446,2.2516,2.2457,2.2747,2.2772,2.2796,2.2888,2.2923,2.2514,2.2514,2.2514,2.2514,0,1.9695,1.9943,2.0103,2.0427,2.0605,2.0848,2.104,2.1201,2.1282,2.1427,2.1741,2.1968,2.2257,2.2349,2.2434,2.2723,2.2703,2.271,2.2666,2.2823,2.2913,2.295,2.2515,2.2515,2.2515,2.2515,0,0,1.988,2.028,2.0337,2.0482,2.0791,2.0985,2.123,2.151,2.1643,2.1873,2.2083,2.2433,2.2439,2.2609,2.2713,2.2864,2.3058,2.2853,2.2862,2.2883,2.3388,2.3383,2.3421,2.3095,2.3102,2.3108,2.3366,0,2.0126,2.0568,2.0712,2.108,2.1308,2.1407,2.1621,2.1831,2.1972,2.2185,2.234,2.2586,2.2576,2.2678,2.2831,2.3002,2.3163,2.2985,2.3292,2.3301,2.3225,2.3469,2.3466,2.3698,2.3402,2.3408,2.3413,0,2.0475,2.0706,2.1095,2.1369,2.147,2.166,2.1924,2.2127,2.2366,2.2457,2.2641,2.2733,2.299,2.2926,2.3283,2.3159,2.3292,2.3394,2.3406,2.3444,2.3369,2.3514,2.3777,2.3812,2.347,2.3465,2.3461,0,2.0569,2.0977,2.1262,2.1384,2.1711,2.184,2.1982,2.2216,2.2372,2.2603,2.2706,2.2963,2.3105,2.3302,2.3459,2.3398,2.3801,2.375,2.3883,2.3879,2.3968,2.3961,2.4257,2.4049,2.4048,2.4048,2.4047,0,2.0831,2.1065,2.1308,2.1484,2.1747,2.1908,2.2164,2.2312,2.2517,2.2721,2.2822,2.3011,2.3206,2.3421,2.3544,2.382,2.3883,2.3963,2.3994,2.3957,2.3946,2.4049,2.4038,2.4057,2.4055,2.4053,2.4052,0,2.0984,2.1156,2.1473,2.1753,2.1828,2.201,2.225,2.2423,2.2562,2.282,2.2889,2.3111,2.3368,2.3542,2.3873,2.3955,2.4254,2.4281,2.4173,2.4189,2.4312,2.4298,2.4687,2.4746,2.4495,2.4497,2.4499,0,2.1141,2.1323,2.162,2.1763,2.1905,2.2135,2.2293,2.2456,2.2617,2.2898,2.3036,2.3299,2.3519,2.3924,2.4114,2.4366,2.4401,2.4519,2.444,2.4394,2.4404,2.4392,2.441,2.4533,2.4535,2.4536,2.4538,0,2.1402,2.1476,2.17,2.1953,2.2139,2.2346,2.2554,2.2665,2.2863,2.3038,2.3301,2.347,2.3804,2.4063,2.4331,2.4477,2.4541,2.4559,2.4604,2.457,2.45,2.4539,2.4209,2.4552,2.455,2.4549,2.4549,2.4548,2.1564,2.1728,2.1961,2.2206,2.2378,2.2568,2.2743,2.2902,2.3124,2.3407,2.3488,2.376,2.3989,2.4355,2.4504,2.4719,2.4708,2.4773,2.479,2.4804,2.4803,2.4461,2.4768,2.4768,2.4768,2.4767,2.4767,0,2.183,2.1982,2.2206,2.2491,2.2683,2.2721,2.2951,2.3109,2.3347,2.3554,2.3765,2.4064,2.4314,2.452,2.4777,2.4909,2.4945,2.4972,2.4965,2.4998,2.4798,2.4734,2.4938,2.4938,2.4938,2.4938,2.4938,2.4938,2.1991,2.227,2.237,2.2734,2.2886,2.3152,2.328,2.3455,2.362,2.3949,2.4155,2.4286,2.4493,2.4764,2.4994,2.5048,2.5139,2.516,2.522,2.5031,2.5012,2.4994,2.4935,2.5178,2.5178,2.5403,2.5405,2.5406]}]]